Location: Augsburg
(48.3836°N, 10.8929°E)
Time: 14:41:07
(UTC+01:00)

ISS - Pass Details

Date: 04 January 2018
Orbit: 402 x 407 km, 51.6° (Epoch: 18 January)

Event Time Altitude Azimuth Distance (km) Brightness Sun altitude
Exits shadow 06:53:39 20° 292° (WNW) 1,020 -2.5 -11.7°
Maximum altitude 06:55:38 45° 358° (N) 567 -3.3 -11.4°
Drops below altitude 10° 06:58:50 10° 73° (ENE) 1,472 -0.2 -10.9°
Sets 07:00:59 0° 80° (E) 2,333 1.1 -10.6°
